GW5721 Weather Reports


Display with metric or nautical units.
time (UTC)temp
F
wind
direction
speed
MPH
gust
MPH
rain 1hr
in
rain 24hr
in
rain mn
in
humidity
%
barometer
mb
20260507114549 42 76 0.0 0.0 0.00 0.00 0.00 94 1018.5
20260507114046 42 66 0.0 0.0 0.00 0.00 0.00 93 1018.4
20260507113543 42 68 0.0 0.0 0.00 0.00 0.00 93 1018.6
20260507113040 42 68 0.0 0.0 0.00 0.00 0.00 93 1018.6
20260507112538 42 69 0.0 0.0 0.00 0.00 0.00 92 1018.4
20260507112035 42 72 0.0 0.0 0.00 0.00 0.00 92 1018.6
20260507111532 43 72 0.0 0.0 0.00 0.00 0.00 92 1018.3
20260507111028 43 78 0.0 0.0 0.00 0.00 0.00 92 1018.4
20260507110525 43 67 0.0 0.0 0.00 0.00 0.00 92 1018.3
20260507110021 43 67 0.0 0.0 0.00 0.00 0.00 92 1018.4
20260507105519 43 74 0.0 0.0 0.00 0.00 0.00 91 1018.4
20260507105014 43 74 0.0 0.0 0.00 0.00 0.00 91 1018.3
20260507104512 43 74 0.0 0.0 0.00 0.00 0.00 91 1018.4
20260507104008 43 74 0.0 0.0 0.00 0.00 0.00 91 1018.3
20260507103505 43 84 0.0 0.0 0.00 0.00 0.00 91 1018.3
20260507103001 43 70 0.0 0.0 0.00 0.00 0.00 91 1018.2
20260507102458 44 68 0.0 0.0 0.00 0.00 0.00 91 1018.1
20260507101954 44 57 0.0 0.0 0.00 0.00 0.00 91 1018.3
20260507101449 44 63 0.0 0.0 0.00 0.00 0.00 92 1018.5
20260507100946 43 48 0.0 0.0 0.00 0.00 0.00 92 1018.4
20260507100443 43 47 0.0 0.0 0.00 0.00 0.00 93 1018.4
20260507095942 43 68 0.0 0.0 0.00 0.00 0.00 93 1018.5
20260507095439 43 322 0.0 0.0 0.00 0.00 0.00 93 1018.3
20260507094936 43 21 0.0 0.0 0.00 0.00 0.00 93 1018.0
20260507094432 43 47 0.0 0.0 0.00 0.00 0.00 93 1018.1
20260507093929 43 43 0.0 0.0 0.00 0.00 0.00 93 1018.3
20260507093427 43 54 0.0 0.0 0.00 0.00 0.00 93 1017.7
20260507092925 43 57 0.0 0.0 0.00 0.00 0.00 93 1018.0
20260507092421 43 71 0.0 0.0 0.00 0.00 0.00 92 1018.2
20260507091918 43 71 0.0 0.0 0.00 0.00 0.00 92 1018.0
20260507091414 43 71 0.0 0.0 0.00 0.00 0.00 92 1018.0
20260507090910 43 71 0.0 0.0 0.00 0.00 0.00 91 1018.2
20260507090406 43 71 0.0 0.0 0.00 0.00 0.00 91 1018.3
20260507085903 43 71 0.0 0.0 0.00 0.00 0.00 90 1018.2
20260507085400 43 71 0.0 0.0 0.00 0.00 0.00 90 1018.2
20260507084857 44 71 0.0 0.0 0.00 0.00 0.00 89 1018.2
20260507084354 44 72 0.0 0.0 0.00 0.00 0.00 89 1018.3
20260507083851 44 72 0.0 0.0 0.00 0.00 0.00 88 1018.5
20260507083347 44 69 0.0 0.0 0.00 0.00 0.00 88 1018.4
20260507082844 45 48 0.0 0.0 0.00 0.00 0.00 89 1018.6
20260507082339 45 55 0.0 1.0 0.00 0.00 0.00 90 1018.4
20260507081837 44 48 0.0 0.0 0.00 0.00 0.00 90 1018.4
20260507081332 44 345 0.0 0.0 0.00 0.00 0.00 91 1018.3
20260507080830 44 42 0.0 0.0 0.00 0.00 0.00 92 1018.3
20260507080326 44 62 0.0 0.0 0.00 0.00 0.00 91 1018.2
20260507075821 44 62 0.0 0.0 0.00 0.00 0.00 91 1018.2
20260507075318 44 62 0.0 0.0 0.00 0.00 0.00 91 1018.1
20260507074814 44 57 0.0 0.0 0.00 0.00 0.00 90 1018.2
20260507074312 44 57 0.0 0.0 0.00 0.00 0.00 90 1018.2
20260507073809 44 69 0.0 0.0 0.00 0.00 0.00 90 1018.2
20260507073305 44 69 0.0 0.0 0.00 0.00 0.00 90 1018.4
20260507072803 44 58 0.0 0.0 0.00 0.00 0.00 90 1018.4
20260507072300 44 64 0.0 0.0 0.00 0.00 0.00 89 1018.2
20260507071757 45 64 0.0 0.0 0.00 0.00 0.00 89 1018.2
20260507071254 45 64 0.0 0.0 0.00 0.00 0.00 88 1018.2
20260507070751 45 64 0.0 0.0 0.00 0.00 0.00 89 1018.4
20260507070248 45 75 0.0 0.0 0.00 0.00 0.00 88 1018.6
20260507065744 45 71 0.0 0.0 0.00 0.00 0.00 88 1018.6
20260507065241 45 71 0.0 0.0 0.00 0.00 0.00 88 1018.6
20260507064738 46 71 0.0 0.0 0.00 0.00 0.00 88 1018.7
20260507064237 46 73 0.0 0.0 0.00 0.00 0.00 87 1018.7
20260507063734 46 60 0.0 0.0 0.00 0.00 0.00 87 1018.6
20260507063231 46 83 0.0 0.0 0.00 0.00 0.00 87 1019.0
20260507062728 46 70 0.0 0.0 0.00 0.00 0.00 86 1018.9
20260507062225 46 68 0.0 0.0 0.00 0.00 0.00 85 1018.9
20260507061723 46 67 0.0 0.0 0.00 0.00 0.00 85 1018.7
20260507061220 47 73 0.0 0.0 0.00 0.00 0.00 85 1018.6
20260507060718 47 75 0.0 0.0 0.00 0.00 0.00 84 1018.7
20260507060215 47 67 0.0 0.0 0.00 0.00 0.00 83 1018.4
20260507055711 48 36 0.0 0.0 0.00 0.00 0.00 82 1018.4
20260507055207 48 89 0.0 0.0 0.00 0.00 0.00 81 1018.3
20260507054703 48 74 0.0 0.0 0.00 0.00 0.00 80 1018.2
20260507054200 49 63 0.0 0.0 0.00 0.00 0.00 79 1018.3
20260507053658 49 63 0.0 0.0 0.00 0.00 0.00 78 1018.3
20260507053155 48 105 0.0 0.0 0.00 0.00 0.00 80 1018.3
20260507052654 48 58 0.0 0.0 0.00 0.00 0.00 80 1018.3
20260507052149 48 48 0.0 0.0 0.00 0.00 0.00 80 1018.3
20260507051648 48 54 0.0 0.0 0.00 0.00 0.00 79 1018.2
20260507051144 49 53 0.0 0.0 0.00 0.00 0.00 78 1018.2
20260507050641 49 48 0.0 0.0 0.00 0.00 0.00 77 1018.1
20260507050138 50 71 0.0 0.0 0.00 0.00 0.00 76 1018.1
20260507045635 50 78 0.0 0.0 0.00 0.00 0.00 76 1018.3
20260507045131 50 1 0.0 0.0 0.00 0.00 0.00 75 1018.2
20260507044628 50 59 0.0 0.0 0.00 0.00 0.00 73 1018.1
20260507044125 51 70 0.0 0.0 0.00 0.00 0.00 71 1018.1
20260507043621 51 70 0.0 0.0 0.00 0.00 0.00 70 1018.1
20260507043118 52 69 0.0 0.0 0.00 0.00 0.00 69 1018.1
20260507042614 52 72 0.0 0.0 0.00 0.00 0.00 67 1018.1
20260507042110 53 59 0.0 0.0 0.00 0.00 0.00 63 1017.8
20260507041607 54 56 0.0 0.0 0.00 0.00 0.00 61 1018.0
20260507041103 54 51 0.0 0.0 0.00 0.00 0.00 60 1018.0
20260507040600 54 33 0.0 0.0 0.00 0.00 0.00 60 1017.9
20260507040057 54 34 0.0 0.0 0.00 0.00 0.00 61 1018.0
20260507035553 54 48 0.0 0.0 0.00 0.00 0.00 59 1018.1
20260507035049 54 64 0.0 0.0 0.00 0.00 0.00 59 1018.1
20260507034546 54 28 0.0 1.0 0.00 0.00 0.00 60 1018.1
20260507034044 54 50 0.0 0.0 0.00 0.00 0.00 60 1017.9
20260507033541 54 51 0.0 1.0 0.00 0.00 0.00 59 1017.8
20260507033038 55 50 0.0 0.0 0.00 0.00 0.00 58 1017.9
20260507032535 55 39 0.0 1.0 0.00 0.00 0.00 57 1017.8
20260507032032 55 52 0.0 0.0 0.00 0.00 0.00 58 1017.7
20260507031528 55 53 0.0 1.0 0.00 0.00 0.00 58 1017.7
20260507031025 55 51 0.0 0.0 0.00 0.00 0.00 57 1017.6
20260507030522 56 57 0.0 0.0 0.00 0.00 0.00 57 1017.6
20260507030020 56 58 0.0 1.0 0.00 0.00 0.00 57 1017.8
20260507025516 56 46 0.0 0.0 0.00 0.00 0.00 56 1017.5
20260507025014 56 50 1.0 2.0 0.00 0.00 0.00 55 1017.3
20260507024512 57 17 1.0 1.0 0.00 0.00 0.00 55 1017.5
20260507024008 57 63 1.0 2.0 0.00 0.00 0.00 54 1017.4
20260507023504 57 50 0.0 1.0 0.00 0.00 0.00 55 1017.2
20260507023001 57 43 1.0 1.0 0.00 0.00 0.00 54 1017.2
20260507022458 57 54 1.0 1.0 0.00 0.00 0.00 53 1017.2
20260507021954 58 57 1.0 1.0 0.00 0.00 0.00 53 1017.2
20260507021449 58 43 2.0 3.0 0.00 0.00 0.00 53 1017.1
20260507020947 58 317 4.0 7.0 0.00 0.00 0.00 52 1017.1
20260507020444 58 319 3.0 3.0 0.00 0.00 0.00 52 1017.2
20260507015941 59 46 2.0 2.0 0.00 0.00 0.00 51 1017.0
20260507015439 59 324 5.0 9.0 0.00 0.00 0.00 51 1017.0
20260507014936 58 310 1.0 2.0 0.00 0.00 0.00 53 1016.9
20260507014433 58 53 0.0 0.0 0.00 0.00 0.00 53 1016.8
20260507013929 58 38 0.0 0.0 0.00 0.00 0.00 54 1016.7
20260507013426 59 43 0.0 1.0 0.00 0.00 0.00 53 1016.8
20260507012923 59 49 0.0 0.0 0.00 0.00 0.00 52 1016.5
20260507012419 59 49 1.0 1.0 0.00 0.00 0.00 52 1016.5
20260507011916 60 41 1.0 1.0 0.00 0.00 0.00 51 1016.3
20260507011414 60 47 0.0 1.0 0.00 0.00 0.00 50 1016.5
20260507010913 60 53 1.0 1.0 0.00 0.00 0.00 49 1016.3
20260507010409 61 28 1.0 2.0 0.00 0.00 0.00 48 1016.3
20260507005906 61 12 2.0 2.0 0.00 0.00 0.00 47 1016.2
20260507005403 62 9 2.0 2.0 0.00 0.00 0.00 48 1016.1
20260507004900 62 4 1.0 2.0 0.00 0.00 0.00 47 1016.1
20260507004356 62 39 0.0 1.0 0.00 0.00 0.00 48 1016.2
20260507003854 63 25 4.0 6.0 0.00 0.00 0.00 45 1015.8
20260507003349 64 1 2.0 2.0 0.00 0.00 0.00 46 1015.9
20260507002844 64 31 3.0 3.0 0.00 0.00 0.00 44 1016.0
20260507002341 64 53 1.0 1.0 0.00 0.00 0.00 45 1016.0
20260507001838 64 11 2.0 2.0 0.00 0.00 0.00 45 1015.9
20260507001335 64 27 2.0 2.0 0.00 0.00 0.00 45 1015.9
20260507000831 64 14 3.0 3.0 0.00 0.00 0.00 44 1015.9
20260507000328 64 47 1.0 1.0 0.00 0.00 0.00 45 1015.8
20260506235824 64 16 2.0 3.0 0.00 0.00 0.00 45 1015.7
20260506235320 65 37 2.0 3.0 0.00 0.00 0.00 42 1015.7
20260506234816 65 244 2.0 3.0 0.00 0.00 0.00 44 1015.8
20260506234314 65 47 1.0 2.0 0.00 0.00 0.00 44 1015.7
20260506233812 66 57 1.0 2.0 0.00 0.00 0.00 44 1015.7
20260506233307 66 29 3.0 4.0 0.00 0.00 0.00 44 1015.6
20260506232804 65 26 2.0 3.0 0.00 0.00 0.00 44 1015.7
20260506232259 65 45 1.0 1.0 0.00 0.00 0.00 45 1015.6
20260506231756 66 339 2.0 3.0 0.00 0.00 0.00 45 1015.6
20260506231255 66 27 3.0 8.0 0.00 0.00 0.00 43 1015.5
20260506230752 66 337 1.0 1.0 0.00 0.00 0.00 46 1015.3
20260506230249 65 39 1.0 1.0 0.00 0.00 0.00 45 1015.5
20260506225745 65 41 3.0 3.0 0.00 0.00 0.00 45 1015.4
20260506225242 65 33 2.0 3.0 0.00 0.00 0.00 47 1015.4
20260506224738 66 26 4.0 7.0 0.00 0.00 0.00 43 1015.4
20260506224236 65 209 2.0 2.0 0.00 0.00 0.00 45 1015.2
20260506223732 64 43 4.0 4.0 0.00 0.00 0.00 46 1015.2
20260506223227 64 32 3.0 6.0 0.00 0.00 0.00 47 1015.2
20260506222725 64 325 4.0 8.0 0.00 0.00 0.00 48 1015.2
20260506222220 64 43 2.0 2.0 0.00 0.00 0.00 46 1015.2
20260506221719 65 19 4.0 6.0 0.00 0.00 0.00 45 1015.1
20260506221216 67 13 2.0 3.0 0.00 0.00 0.00 44 1015.0
20260506220713 68 38 2.0 2.0 0.00 0.00 0.00 42 1014.9
20260506220208 67 18 3.0 4.0 0.00 0.00 0.00 44 1015.0
20260506215705 67 325 3.0 4.0 0.00 0.00 0.00 44 1015.0
20260506215200 67 54 3.0 6.0 0.00 0.00 0.00 45 1014.8
20260506214657 67 27 3.0 4.0 0.00 0.00 0.00 44 1014.8
20260506214155 68 336 6.0 7.0 0.00 0.00 0.00 43 1014.9
20260506213653 68 350 3.0 4.0 0.00 0.00 0.00 44 1015.0
20260506213150 67 322 4.0 6.0 0.00 0.00 0.00 47 1014.9
20260506212647 67 340 3.0 3.0 0.00 0.00 0.00 42 1014.9
20260506212141 66 355 3.0 3.0 0.00 0.00 0.00 45 1015.2
20260506211637 66 32 4.0 4.0 0.00 0.00 0.00 44 1014.9
20260506211135 65 40 2.0 3.0 0.00 0.00 0.00 45 1015.0
20260506210632 65 32 2.0 3.0 0.00 0.00 0.00 49 1015.1
20260506210129 64 39 2.0 3.0 0.00 0.00 0.00 50 1015.0
20260506205626 64 39 3.0 3.0 0.00 0.00 0.00 50 1015.1
20260506205125 64 31 3.0 3.0 0.00 0.00 0.00 49 1015.4
20260506204624 64 334 4.0 6.0 0.00 0.00 0.00 48 1015.5
20260506204120 63 45 1.0 2.0 0.00 0.00 0.00 49 1015.5
20260506203619 63 48 2.0 3.0 0.00 0.00 0.00 50 1015.5
20260506203115 64 267 4.0 4.0 0.00 0.00 0.00 49 1015.4
20260506202613 64 16 2.0 2.0 0.00 0.00 0.00 49 1015.4
20260506202109 63 34 1.0 1.0 0.00 0.00 0.00 50 1015.6
20260506201606 64 42 2.0 3.0 0.00 0.00 0.00 49 1015.8
20260506201103 64 27 4.0 4.0 0.00 0.00 0.00 49 1015.6
20260506200559 64 345 4.0 6.0 0.00 0.00 0.00 47 1015.9
20260506200056 65 36 3.0 4.0 0.00 0.00 0.00 47 1016.0
20260506195552 66 313 6.0 8.0 0.00 0.00 0.00 48 1016.1
20260506195049 65 17 5.0 8.0 0.00 0.00 0.00 50 1015.8
20260506194547 64 64 2.0 3.0 0.00 0.00 0.00 50 1015.7
20260506194043 64 13 4.0 6.0 0.00 0.00 0.00 50 1015.7
20260506193541 64 6 2.0 2.0 0.00 0.00 0.00 50 1015.7
20260506193038 66 29 2.0 3.0 0.00 0.00 0.00 49 1015.8
20260506192534 64 299 2.0 4.0 0.00 0.00 0.00 53 1015.8
20260506192030 64 354 3.0 4.0 0.00 0.00 0.00 48 1015.8
20260506191527 64 28 2.0 2.0 0.00 0.00 0.00 50 1015.9
20260506191023 63 34 2.0 3.0 0.00 0.00 0.00 51 1016.0
20260506190521 65 358 4.0 6.0 0.00 0.00 0.00 49 1016.0
20260506190019 64 218 2.0 3.0 0.00 0.00 0.00 52 1016.2
20260506185515 64 14 2.0 3.0 0.00 0.00 0.00 50 1016.2
20260506185011 63 6 1.0 2.0 0.00 0.00 0.00 51 1016.5
20260506184509 63 25 2.0 3.0 0.00 0.00 0.00 52 1016.6
20260506184006 63 48 1.0 1.0 0.00 0.00 0.00 51 1016.6
20260506183501 64 358 3.0 6.0 0.00 0.00 0.00 49 1016.6
20260506182958 65 324 4.0 6.0 0.00 0.00 0.00 47 1016.8
20260506182455 65 51 2.0 2.0 0.00 0.00 0.00 49 1016.7
20260506181953 65 73 2.0 4.0 0.00 0.00 0.00 49 1016.7
20260506181451 65 53 2.0 3.0 0.00 0.00 0.00 46 1016.8
20260506180947 64 27 4.0 6.0 0.00 0.00 0.00 51 1017.0
20260506180444 64 339 3.0 4.0 0.00 0.00 0.00 50 1017.0
20260506175940 64 78 2.0 3.0 0.00 0.00 0.00 50 1016.7
20260506175437 64 8 2.0 3.0 0.00 0.00 0.00 49 1016.9
20260506174933 63 27 1.0 1.0 0.00 0.00 0.00 53 1016.8
20260506174432 63 4 3.0 4.0 0.00 0.00 0.00 51 1016.8
20260506173928 63 41 5.0 6.0 0.00 0.00 0.00 50 1016.9
20260506173426 62 32 2.0 4.0 0.00 0.00 0.00 52 1017.0
20260506172923 63 8 4.0 7.0 0.00 0.00 0.00 50 1017.2
20260506172420 62 39 2.0 3.0 0.00 0.00 0.00 52 1017.5
20260506171916 62 25 3.0 3.0 0.00 0.00 0.00 51 1017.4
20260506171414 63 8 5.0 8.0 0.00 0.00 0.00 50 1017.6
20260506170912 62 18 1.0 2.0 0.00 0.00 0.00 52 1017.9
20260506170408 62 30 4.0 4.0 0.00 0.00 0.00 52 1017.9
20260506165907 62 319 2.0 3.0 0.00 0.00 0.00 52 1018.0
20260506165405 60 43 3.0 4.0 0.00 0.00 0.00 53 1018.2
20260506164900 60 12 1.0 1.0 0.00 0.00 0.00 56 1018.1
20260506164357 60 2 3.0 4.0 0.00 0.00 0.00 54 1018.2
20260506163855 60 352 3.0 4.0 0.00 0.00 0.00 55 1017.9
20260506163349 60 53 2.0 2.0 0.00 0.00 0.00 55 1018.0
20260506162845 61 57 1.0 1.0 0.00 0.00 0.00 56 1017.7
20260506162343 61 29 3.0 6.0 0.00 0.00 0.00 53 1017.8
20260506161840 60 0 3.0 4.0 0.00 0.00 0.00 56 1017.8
20260506161337 60 15 4.0 6.0 0.00 0.00 0.00 56 1017.8
20260506160835 59 20 4.0 4.0 0.00 0.00 0.00 56 1017.8
20260506160331 57 16 1.0 2.0 0.00 0.00 0.00 59 1017.9
20260506155831 57 21 2.0 2.0 0.00 0.00 0.00 59 1017.7
20260506155327 56 43 3.0 3.0 0.00 0.00 0.00 61 1017.7
20260506153439 55 39 1.0 1.0 0.00 0.00 0.00 60 1017.2
20260506152936 56 48 2.0 2.0 0.00 0.00 0.00 59 1017.1
20260506152433 56 37 3.0 3.0 0.00 0.00 0.00 60 1016.9
20260506151931 55 17 2.0 3.0 0.00 0.00 0.00 61 1016.7
20260506151428 55 69 4.0 4.0 0.00 0.00 0.00 61 1016.6
20260506150926 55 34 2.0 3.0 0.00 0.00 0.00 60 1016.4
20260506150422 55 14 4.0 6.0 0.00 0.00 0.00 59 1016.3
20260506145919 55 8 2.0 4.0 0.00 0.00 0.00 60 1016.4
20260506145415 55 9 6.0 8.0 0.00 0.00 0.00 60 1016.3
20260506144913 55 15 6.0 8.0 0.00 0.00 0.00 61 1016.5
20260506144409 54 38 4.0 6.0 0.00 0.00 0.00 62 1016.5
20260506143908 54 11 3.0 4.0 0.00 0.00 0.00 62 1016.3
20260506143404 54 15 2.0 3.0 0.00 0.00 0.00 63 1016.4
20260506142902 53 45 3.0 4.0 0.00 0.00 0.00 64 1016.5
20260506142400 53 58 3.0 4.0 0.00 0.00 0.00 65 1016.4
20260506141858 53 12 3.0 3.0 0.00 0.00 0.00 64 1016.3
20260506141356 53 43 3.0 3.0 0.00 0.00 0.00 67 1016.2
20260506140854 52 50 4.0 4.0 0.00 0.00 0.00 67 1016.3
20260506140350 52 33 4.0 6.0 0.00 0.00 0.00 67 1016.4
20260506135847 52 29 4.0 4.0 0.00 0.00 0.00 68 1016.3
20260506135344 51 16 3.0 3.0 0.00 0.00 0.00 69 1016.4
20260506134840 51 0 5.0 6.0 0.00 0.00 0.00 68 1016.4
20260506134337 52 18 4.0 6.0 0.00 0.00 0.00 69 1016.4
20260506133834 52 38 5.0 6.0 0.00 0.00 0.00 69 1016.7
20260506133331 51 47 3.0 7.0 0.00 0.00 0.00 70 1016.9
20260506132827 51 61 4.0 7.0 0.00 0.00 0.00 69 1016.6
20260506132325 51 21 3.0 4.0 0.00 0.00 0.00 70 1016.8
20260506131822 51 34 3.0 4.0 0.00 0.00 0.00 71 1016.6
20260506131318 51 32 3.0 4.0 0.00 0.00 0.00 73 1016.5
20260506130816 51 21 2.0 3.0 0.00 0.00 0.00 74 1016.5
20260506130312 51 40 1.0 2.0 0.00 0.00 0.00 75 1016.5
20260506125810 50 45 1.0 2.0 0.00 0.00 0.00 76 1016.2
20260506125308 50 15 4.0 4.0 0.00 0.00 0.00 77 1016.3
20260506124807 50 34 1.0 1.0 0.00 0.00 0.00 77 1016.2
20260506124303 50 19 2.0 4.0 0.00 0.00 0.00 78 1016.4
20260506123801 50 26 2.0 2.0 0.00 0.00 0.00 78 1016.4
20260506123259 50 25 4.0 6.0 0.00 0.00 0.00 79 1016.2
20260506122755 50 44 3.0 4.0 0.00 0.00 0.00 79 1016.1
20260506122253 49 5 4.0 6.0 0.00 0.00 0.00 79 1016.1
20260506121751 49 3 4.0 4.0 0.00 0.00 0.00 79 1016.1
20260506121248 49 248 2.0 3.0 0.00 0.00 0.00 79 1015.9
20260506120745 49 61 2.0 2.0 0.00 0.00 0.00 78 1015.8
20260506120243 49 29 5.0 6.0 0.00 0.00 0.00 79 1015.3
20260506115740 49 359 4.0 8.0 0.00 0.00 0.00 79 1015.4
20260506115238 49 356 4.0 7.0 0.00 0.00 0.00 79 1015.6
20260506114736 49 35 2.0 3.0 0.00 0.00 0.00 79 1015.6